When you browse on this site, cookies collect data to enhance your experience and personalize the content and advertising you see.
Visit our Privacy Policy to learn more. By continuing to use the site, you agree to this use of cookies and data.
  • Em Portugal
  • Lista de países
  • Para 7 dias
  • Temperatura da água
  • Mapas de satélite
  • Mapa do tempo
  • Widgets de tempo
  • user-avatar
    Iniciar Sessão

    Previsão horária em Darvin

    Hoje, 18 Janeiro, Sexta-feira

    Tempo Temperatura Precipitação Vento Pressão Humidade
    00:00 +29°C° 0.4 mm 0 m/s 755 mmHg 74%
    01:00 +29°C° 0.3 mm 0 m/s 754 mmHg 75%
    02:00 +28°C° 0.3 mm 0 m/s 754 mmHg 75%
    03:00 +30°C° 0 mm 2 m/s 754 mmHg 79%
    04:00 +30°C° 0 mm 2 m/s 754 mmHg 80%
    05:00 +29°C° 0 mm 2 m/s 754 mmHg 81%
    06:00 +29°C° 0 mm 2 m/s 754 mmHg 82%
    07:00 +30°C° 0 mm 2 m/s 754 mmHg 76%
    08:00 +31°C° 0 mm 2 m/s 754 mmHg 71%
    09:00 +31°C° 0 mm 1 m/s 755 mmHg 74%
    10:00 +33°C° 0 mm 1 m/s 755 mmHg 66%
    11:00 +33°C° 0 mm 0 m/s 755 mmHg 58%
    12:00 +35°C° 0 mm 0 m/s 754 mmHg 51%
    13:00 +37°C° 0 mm 1 m/s 754 mmHg 51%
    14:00 +38°C° 0 mm 2 m/s 754 mmHg 51%
    15:00 +37°C° 0 mm 3 m/s 753 mmHg 50%
    16:00 +36°C° 0.1 mm 3 m/s 754 mmHg 56%
    17:00 +35°C° 0.1 mm 3 m/s 754 mmHg 62%
    18:00 +34°C° 0.1 mm 4 m/s 754 mmHg 68%
    19:00 +33°C° 0.1 mm 3 m/s 754 mmHg 71%
    20:00 +31°C° 0.1 mm 3 m/s 754 mmHg 74%
    21:00 +31°C° 0.1 mm 2 m/s 755 mmHg 78%
    22:00 +31°C° 0 mm 2 m/s 755 mmHg 78%
    23:00 +31°C° 0 mm 2 m/s 755 mmHg 78%

    Amanhã, 19 Janeiro, Sábado

    Tempo Temperatura Precipitação Vento Pressão Humidade
    00:00 +30°C° 0 mm 1 m/s 755 mmHg 78%
    01:00 +30°C° 0.1 mm 1 m/s 755 mmHg 79%
    02:00 +30°C° 0.1 mm 1 m/s 755 mmHg 81%
    03:00 +30°C° 0.1 mm 1 m/s 754 mmHg 82%
    04:00 +30°C° 0 mm 1 m/s 755 mmHg 83%
    05:00 +30°C° 0 mm 1 m/s 755 mmHg 83%
    06:00 +28°C° 0 mm 0 m/s 755 mmHg 84%
    07:00 +29°C° 0.3 mm 0 m/s 755 mmHg 78%
    08:00 +32°C° 0.3 mm 1 m/s 756 mmHg 72%
    09:00 +34°C° 0.3 mm 1 m/s 756 mmHg 66%
    10:00 +34°C° 0.1 mm 1 m/s 756 mmHg 63%
    11:00 +35°C° 0.1 mm 1 m/s 755 mmHg 60%
    12:00 +35°C° 0.1 mm 1 m/s 755 mmHg 56%
    13:00 +36°C° 0 mm 2 m/s 755 mmHg 56%
    14:00 +37°C° 0 mm 2 m/s 754 mmHg 56%
    15:00 +37°C° 0 mm 2 m/s 754 mmHg 56%
    16:00 +36°C° 0.1 mm 2 m/s 754 mmHg 61%
    17:00 +35°C° 0.1 mm 2 m/s 754 mmHg 66%
    18:00 +34°C° 0.1 mm 2 m/s 754 mmHg 71%
    19:00 +32°C° 0.3 mm 2 m/s 755 mmHg 74%
    20:00 +31°C° 0.3 mm 2 m/s 755 mmHg 77%
    21:00 +31°C° 0.3 mm 1 m/s 755 mmHg 80%
    22:00 +31°C° 0 mm 1 m/s 756 mmHg 80%
    23:00 +30°C° 0 mm 1 m/s 756 mmHg 80%

    Depois de amanhã, 20 Janeiro, Domingo

    Tempo Temperatura Precipitação Vento Pressão Humidade
    00:00 +30°C° 0 mm 1 m/s 756 mmHg 81%
    01:00 +30°C° 0.1 mm 1 m/s 755 mmHg 83%
    02:00 +30°C° 0.1 mm 1 m/s 755 mmHg 84%
    03:00 +28°C° 0.1 mm 0 m/s 754 mmHg 86%
    04:00 +29°C° 0.2 mm 1 m/s 754 mmHg 87%
    05:00 +29°C° 0.2 mm 1 m/s 755 mmHg 88%
    06:00 +29°C° 0.2 mm 1 m/s 755 mmHg 88%
    07:00 +30°C° 0 mm 1 m/s 755 mmHg 83%
    08:00 +31°C° 0 mm 1 m/s 755 mmHg 78%
    09:00 +32°C° 0 mm 2 m/s 755 mmHg 72%
    10:00 +34°C° 0 mm 1 m/s 755 mmHg 65%
    11:00 +36°C° 0 mm 1 m/s 755 mmHg 58%
    12:00 +37°C° 0 mm 1 m/s 755 mmHg 51%
    13:00 +38°C° 0.2 mm 2 m/s 754 mmHg 50%
    14:00 +38°C° 0.2 mm 2 m/s 753 mmHg 50%
    15:00 +38°C° 0.2 mm 3 m/s 753 mmHg 50%
    16:00 +36°C° 0.8 mm 4 m/s 753 mmHg 61%
    17:00 +34°C° 0.8 mm 4 m/s 753 mmHg 72%
    18:00 +32°C° 0.8 mm 4 m/s 753 mmHg 82%
    19:00 +32°C° 1.4 mm 4 m/s 753 mmHg 83%
    20:00 +31°C° 1.4 mm 3 m/s 754 mmHg 83%
    21:00 +30°C° 1.4 mm 2 m/s 754 mmHg 84%
    22:00 +30°C° 1.9 mm 2 m/s 755 mmHg 85%
    23:00 +30°C° 1.9 mm 1 m/s 755 mmHg 87%

    21 Janeiro, Segunda-feira

    Tempo Temperatura Precipitação Vento Pressão Humidade
    00:00 +29°C° 1.9 mm 1 m/s 755 mmHg 88%
    01:00 +29°C° 0.3 mm 1 m/s 754 mmHg 88%
    02:00 +29°C° 0.3 mm 2 m/s 754 mmHg 88%
    03:00 +29°C° 0.3 mm 2 m/s 753 mmHg 88%
    04:00 +29°C° 0 mm 2 m/s 753 mmHg 89%
    05:00 +29°C° 0 mm 2 m/s 754 mmHg 89%
    06:00 +28°C° 0 mm 2 m/s 754 mmHg 89%
    07:00 +30°C° 0 mm 2 m/s 754 mmHg 84%
    08:00 +31°C° 0 mm 2 m/s 755 mmHg 78%
    09:00 +32°C° 0 mm 2 m/s 755 mmHg 73%
    10:00 +34°C° 0 mm 2 m/s 755 mmHg 67%
    11:00 +35°C° 0 mm 2 m/s 754 mmHg 60%
    12:00 +37°C° 0 mm 2 m/s 754 mmHg 54%
    13:00 +37°C° 0 mm 2 m/s 753 mmHg 53%
    14:00 +37°C° 0 mm 2 m/s 753 mmHg 52%
    15:00 +38°C° 0 mm 2 m/s 752 mmHg 51%
    16:00 +36°C° 2.3 mm 2 m/s 752 mmHg 58%
    17:00 +35°C° 2.3 mm 3 m/s 753 mmHg 65%
    18:00 +34°C° 2.3 mm 3 m/s 753 mmHg 73%
    19:00 +33°C° 1.8 mm 3 m/s 753 mmHg 76%
    20:00 +31°C° 1.8 mm 3 m/s 754 mmHg 79%
    21:00 +30°C° 1.8 mm 4 m/s 755 mmHg 83%
    22:00 +30°C° 0.3 mm 4 m/s 755 mmHg 84%
    23:00 +29°C° 0.3 mm 4 m/s 755 mmHg 85%

    22 Janeiro, Terça-feira

    Tempo Temperatura Precipitação Vento Pressão Humidade
    00:00 +29°C° 0.3 mm 4 m/s 755 mmHg 86%
    01:00 +29°C° 0.2 mm 4 m/s 754 mmHg 87%
    02:00 +29°C° 0.2 mm 4 m/s 753 mmHg 88%
    03:00 +29°C° 0.2 mm 3 m/s 753 mmHg 90%
    04:00 +29°C° 0.3 mm 3 m/s 753 mmHg 89%
    05:00 +28°C° 0.3 mm 4 m/s 753 mmHg 89%
    06:00 +28°C° 0.3 mm 4 m/s 754 mmHg 89%
    07:00 +29°C° 0 mm 4 m/s 754 mmHg 86%
    08:00 +29°C° 0 mm 4 m/s 754 mmHg 84%
    09:00 +30°C° 0 mm 4 m/s 754 mmHg 81%
    10:00 +32°C° 0 mm 4 m/s 754 mmHg 76%
    11:00 +33°C° 0 mm 4 m/s 754 mmHg 71%
    12:00 +34°C° 0 mm 3 m/s 753 mmHg 66%
    13:00 +35°C° 0.1 mm 3 m/s 753 mmHg 64%
    14:00 +35°C° 0.1 mm 3 m/s 752 mmHg 61%
    15:00 +36°C° 0.1 mm 3 m/s 752 mmHg 59%
    16:00 +35°C° 1 mm 4 m/s 752 mmHg 64%
    17:00 +34°C° 1 mm 4 m/s 752 mmHg 70%
    18:00 +33°C° 1 mm 4 m/s 753 mmHg 76%
    19:00 +32°C° 0 mm 4 m/s 753 mmHg 78%
    20:00 +30°C° 0 mm 4 m/s 754 mmHg 80%
    21:00 +30°C° 0 mm 4 m/s 754 mmHg 82%
    22:00 +30°C° 0.8 mm 3 m/s 754 mmHg 83%
    23:00 +29°C° 0.8 mm 3 m/s 754 mmHg 84%

    23 Janeiro, Quarta-feira

    Tempo Temperatura Precipitação Vento Pressão Humidade
    00:00 +29°C° 0.8 mm 3 m/s 754 mmHg 85%
    01:00 +29°C° 2.3 mm 2 m/s 754 mmHg 86%
    02:00 +29°C° 2.3 mm 1 m/s 753 mmHg 87%
    03:00 +29°C° 2.3 mm 1 m/s 753 mmHg 88%
    04:00 +29°C° 1.2 mm 1 m/s 753 mmHg 88%
    05:00 +28°C° 1.2 mm 1 m/s 753 mmHg 87%
    06:00 +28°C° 1.2 mm 1 m/s 754 mmHg 87%
    07:00 +29°C° 0 mm 1 m/s 754 mmHg 83%
    08:00 +30°C° 0 mm 1 m/s 754 mmHg 79%
    09:00 +31°C° 0 mm 1 m/s 754 mmHg 75%
    10:00 +32°C° 0 mm 1 m/s 754 mmHg 70%
    11:00 +33°C° 0 mm 1 m/s 754 mmHg 66%
    12:00 +34°C° 0 mm 1 m/s 754 mmHg 62%
    13:00 +34°C° 0 mm 1 m/s 753 mmHg 62%
    14:00 +34°C° 0 mm 1 m/s 752 mmHg 63%
    15:00 +35°C° 0 mm 2 m/s 752 mmHg 63%
    16:00 +34°C° 0 mm 2 m/s 752 mmHg 66%
    17:00 +34°C° 0 mm 2 m/s 752 mmHg 68%
    18:00 +32°C° 0 mm 2 m/s 752 mmHg 70%
    19:00 +33°C° 0 mm 3 m/s 753 mmHg 73%
    20:00 +31°C° 0 mm 3 m/s 753 mmHg 75%
    21:00 +32°C° 0 mm 4 m/s 754 mmHg 77%
    22:00 +30°C° 0.1 mm 4 m/s 754 mmHg 79%
    23:00 +30°C° 0.1 mm 4 m/s 754 mmHg 81%
    Mostrar mais